Regional Weather Roundup
Issued by NWS Midland/Odessa, TX

Current Version | Previous Version | Text Only | Print | Product List | Glossary On
Versions: 1 2 3 4 5 6 7 8 9 10 11 12 13 14 15 16 17 18 19 20 21 22 23 24 25 26 27 28 29 30 31 32 33 34 35 36 37 38 39 40 41 42 43 44 45 46 47 48 49 50
000
ASUS44 KMAF 010410
RWRMAF
MIDLAND AREA WEATHER ROUNDUP
NATIONAL WEATHER SERVICE MIDLAND TX
1100 PM CDT FRI JUL 31 2015

...IN SOUTHWEST TEXAS AND SOUTHEAST NEW MEXICO...

CITY           SKY/WX    TMP DP  RH WIND       PRES   REMARKS
ALPINE         CLEAR     79  53  41 SE7       30.26R
ANDREWS        FAIR      84  62  46 E17G25    30.14R
ARTESIA        MOCLDY    88  57  35 NE12G22   30.14R
BIG SPRING     PTCLDY    82  62  52 NE17G25   30.13R
CARLSBAD       PTCLDY    84  51  31 SE6       30.10R
DRYDEN           N/A     88  65  46 SE13      30.05R
FORT STOCKTON  PTCLDY    85  61  44 SE22G31   30.10R
GUAD PASS      CLEAR     75  48  38 NE15      30.28R
HOBBS          PTCLDY    82  63  51 E16G23    30.17R
MARFA          CLEAR     70  54  56 NE6       30.24R
MIDLAND AIRPK  MOCLDY    87  56  34 E14       30.12R
MIDLAND INTL   LGT RAIN  82  63  52 SW15G22   30.12R
ODESSA         PTCLDY    86  54  33 E17G25    30.11R
PECOS          CLEAR     86  51  30 E5        30.05R
PRESIDIO       FAIR      91  54  28 MISG      30.05R
SEMINOLE       CLEAR     82  60  48 E15G21    30.16R
SNYDER         CLEAR     79  66  65 E16G23    30.13R
WINK           PTCLDY    90  53  28 E6        30.06R
$$
...OTHER STATIONS IN TEXAS...

CITY           SKY/WX    TMP DP  RH WIND       PRES   REMARKS
ABILENE        CLEAR     79  68  69 SE12      30.10R
AMARILLO       CLOUDY    70  62  76 SW14G32   30.25R
AUSTIN         PTCLDY    87  71  58 NE7       30.00R
BROWNSVILLE    CLOUDY    81  74  79 SE6       29.97R
CORPUS CHRISTI CLOUDY    78  74  87 CALM      29.97R
DALLAS FTW     CLOUDY    89  55  31 E10       30.02S
DEL RIO        CLEAR     85  68  56 SE8       30.00R
EL PASO        PTCLDY    86  55  34 E9        30.11R
HOUSTON INT    PTCLDY    81  67  62 NE3       29.98S
LUBBOCK        MOCLDY    74  68  81 E17       30.18R
SAN ANGELO     CLOUDY    88  61  40 SE6       30.06R
SAN ANTONIO    MOCLDY    84  70  62 W5        30.03R
WACO           PTCLDY    84  66  54 E6        30.01F
WICHITA FALLS  NOT AVBL
$$
...OTHER LOCATIONS IN NEW MEXICO...

CITY           SKY/WX    TMP DP  RH WIND       PRES   REMARKS
ALAMAGORDO     MOCLDY    84  52  32 N5        30.17R
ALBUQUERQUE    CLOUDY    74  55  51 E14       30.30R
CANNON AFB     MOCLDY    70  67  90 NE7       30.24R
CLOVIS         CLOUDY    70  63  78 NE7       30.25S
HOLLOMAN AFB   CLOUDY    85  53  33 NW5       30.16R
ROSWELL        MOCLDY    85  54  34 NE13      30.15R
RUIDOSO          N/A    N/A N/A N/A MISG        N/A
SANTA FE       CLOUDY    65  58  78 CALM      30.36R
TRUTH OR CONSE MOCLDY    80  58  46 CALM      30.21R
TUCUMCARI      CLOUDY    69  65  86 CALM      30.21S
$$



USA.gov is the U.S. government's official web portal to all federal, state and local government web resources and services.